IRIDIUM 106 1 41917U 17003A 26247.70136390 -.00000094 00000+0 -40588-4 0 9996 2 41917 86.3923 55.2851 0002044 81.2890 278.8537 14.34218072504606 IRIDIUM 103 1 41918U 17003B 26247.68867910 -.00000089 00000+0 -38709-4 0 9999 2 41918 86.3923 55.1900 0002227 91.3695 268.7756 14.34217823504625 IRIDIUM 109 1 41919U 17003C 26247.69502420 -.00000094 00000+0 -40542-4 0 9997 2 41919 86.3924 55.2481 0002088 90.7018 269.4417 14.34217917504591 IRIDIUM 102 1 41920U 17003D 26247.59354443 -.00000079 00000+0 -35355-4 0 9997 2 41920 86.3922 55.2125 0001990 89.6922 270.4502 14.34217411504662 IRIDIUM 105 1 41921U 17003E 26247.62191222 .00000151 00000+0 46920-4 0 9995 2 41921 86.3990 23.6455 0002180 99.5231 260.6211 14.34216752506520 IRIDIUM 104 1 41922U 17003F 26247.60624422 -.00000077 00000+0 -34741-4 0 9994 2 41922 86.3924 55.2509 0002214 97.2201 262.9246 14.34216257504654 IRIDIUM 114 1 41923U 17003G 26247.61257127 -.00000079 00000+0 -35324-4 0 9990 2 41923 86.3923 55.2313 0002142 91.8539 268.2903 14.34217359504632 IRIDIUM 108 1 41924U 17003H 26247.64085730 .00000079 00000+0 21082-4 0 9997 2 41924 86.3984 23.5226 0002090 94.9863 265.1572 14.34216511506490 IRIDIUM 112 1 41925U 17003J 26247.59988725 -.00000199 00000+0 -78232-4 0 9992 2 41925 86.3920 55.0749 0002051 91.6986 268.4444 14.34216926504658 IRIDIUM 111 1 41926U 17003K 26247.58719822 -.00000084 00000+0 -36974-4 0 9992 2 41926 86.3922 55.1526 0002080 89.8950 270.2484 14.34217864504632 IRIDIUM 113 1 42803U 17039A 26247.07878754 -.00000014 00000+0 -12049-4 0 9990 2 42803 86.3940 289.2070 0002217 95.8525 264.2924 14.34217259482497 IRIDIUM 123 1 42804U 17039B 26247.60864111 .00000090 00000+0 25174-4 0 9997 2 42804 86.3998 320.4574 0002301 91.8618 268.2841 14.34217160481336 IRIDIUM 120 1 42805U 17039C 26247.42128685 .00000112 00000+0 33078-4 0 9994 2 42805 86.3928 288.8359 0002194 90.0392 270.1055 14.34217625482536 IRIDIUM 115 1 42806U 17039D 26247.57171554 .00000157 00000+0 40668-4 0 9996 2 42806 86.4465 288.9127 0002444 89.2935 270.8546 14.43278114485714 IRIDIUM 118 1 42807U 17039E 26247.57058119 .00000111 00000+0 32726-4 0 9994 2 42807 86.3998 320.4710 0002163 95.4612 264.6831 14.34215545481324 IRIDIUM 117 1 42808U 17039F 26247.65938027 .00000088 00000+0 24476-4 0 9995 2 42808 86.3997 320.3908 0002243 93.0695 267.0757 14.34216205481368 IRIDIUM 126 1 42809U 17039G 26247.61498102 .00000096 00000+0 27151-4 0 9999 2 42809 86.3998 320.4618 0002308 95.9310 264.2149 14.34215855481337 IRIDIUM 124 1 42810U 17039H 26247.43620139 .00000100 00000+0 23783-4 0 9991 2 42810 86.4430 257.2099 0002418 89.7520 270.3958 14.43280492486540 IRIDIUM 128 1 42811U 17039J 26247.60572131 .00000142 00000+0 43692-4 0 9996 2 42811 86.4025 351.9582 0002109 91.5315 268.6123 14.34216386481360 IRIDIUM 121 1 42812U 17039K 26247.63400772 .00000090 00000+0 25156-4 0 9998 2 42812 86.3999 320.4822 0002165 94.0565 266.0878 14.34215960481215 IRIDIUM 133 1 42955U 17061A 26247.63743532 .00000040 00000+0 72567-5 0 9999 2 42955 86.4027 352.0646 0002158 93.6297 266.5146 14.34216418466169 IRIDIUM 100 1 42956U 17061B 26247.63109179 .00000032 00000+0 43845-5 0 9991 2 42956 86.4025 351.9840 0002144 94.2216 265.9225 14.34216363466165 IRIDIUM 122 1 42957U 17061C 26247.59937329 .00000130 00000+0 39229-4 0 9992 2 42957 86.4026 351.9977 0002303 94.9975 265.1484 14.34216659466161 IRIDIUM 129 1 42958U 17061D 26247.62474822 -.00000048 00000+0 -24130-4 0 9996 2 42958 86.4024 352.0550 0002096 100.9877 259.1554 14.34216068466184 IRIDIUM 119 1 42959U 17061E 26247.59303505 .00000129 00000+0 38903-4 0 9993 2 42959 86.4027 352.0645 0002245 95.2666 264.8786 14.34215624466199 IRIDIUM 107 1 42960U 17061F 26247.61206466 .00000037 00000+0 62141-5 0 9996 2 42960 86.4027 352.0781 0002333 90.3593 269.7871 14.34215977466207 IRIDIUM 132 1 42961U 17061G 26247.61840729 -.00000099 00000+0 -42346-4 0 9997 2 42961 86.4025 352.0547 0002046 94.7169 265.4260 14.34216381466209 IRIDIUM 136 1 42962U 17061H 26247.65012042 .00000075 00000+0 19838-4 0 9993 2 42962 86.4027 352.0483 0002120 94.5941 265.5497 14.34216383466227 IRIDIUM 139 1 42963U 17061J 26247.65646110 -.00000092 00000+0 -39771-4 0 9992 2 42963 86.4026 352.1089 0002034 92.6789 267.4640 14.34215721466230 IRIDIUM 125 1 42964U 17061K 26247.64377866 .00000000 00000+0 -71579-5 0 9992 2 42964 86.4027 352.1768 0002569 95.3866 264.7622 14.34216161466245 IRIDIUM 135 1 43070U 17083A 26247.54813954 .00000152 00000+0 47157-4 0 9998 2 43070 86.3932 288.8424 0002248 93.5387 266.6066 14.34217592455525 IRIDIUM 138 1 43071U 17083B 26247.36420459 -.00000005 00000+0 -89483-5 0 9991 2 43071 86.3945 288.6265 0002288 95.6029 264.5427 14.34217270455487 IRIDIUM 116 1 43072U 17083C 26247.12318526 -.00000025 00000+0 -15976-4 0 9994 2 43072 86.3932 289.0049 0002016 86.5739 273.5687 14.34217244455484 IRIDIUM 130 1 43073U 17083D 26247.09147222 .00000019 00000+0 -12453-6 0 9995 2 43073 86.3941 289.3014 0002193 87.3451 272.7996 14.34217588455425 IRIDIUM 151 1 43074U 17083E 26247.55448125 .00000032 00000+0 45333-5 0 9999 2 43074 86.3933 288.8842 0002214 91.6846 268.4603 14.34217745455512 IRIDIUM 134 1 43075U 17083F 26247.03438889 .00000018 00000+0 -49385-6 0 9996 2 43075 86.3936 289.1108 0002186 91.7080 268.4366 14.34217559455401 IRIDIUM 137 1 43076U 17083G 26247.39591565 .00000026 00000+0 22507-5 0 9991 2 43076 86.3936 289.0539 0001801 91.9023 268.2379 14.34217659455527 IRIDIUM 141 1 43077U 17083H 26247.38957433 .00000016 00000+0 -13562-5 0 9992 2 43077 86.3933 288.8829 0002256 94.3106 265.8347 14.34217145455526 IRIDIUM 153 1 43078U 17083J 26247.62082306 .00000017 00000+0 -10463-5 0 9996 2 43078 86.3909 257.2480 0002314 92.4893 267.6568 14.34218603456661 IRIDIUM 131 1 43079U 17083K 26247.58619473 .00000026 00000+0 23473-5 0 9997 2 43079 86.3936 288.9917 0002232 94.9144 265.2306 14.34217071455484 IRIDIUM 144 1 43249U 18030A 26247.62716634 -.00000161 00000+0 -64428-4 0 9997 2 43249 86.3907 257.1725 0002113 87.8381 272.3057 14.34216485441528 IRIDIUM 149 1 43250U 18030B 26247.63350999 -.00000027 00000+0 -16798-4 0 9996 2 43250 86.3906 257.1360 0002228 91.7367 268.4084 14.34217983441541 IRIDIUM 157 1 43251U 18030C 26247.58276681 -.00000029 00000+0 -17464-4 0 9999 2 43251 86.3908 257.2123 0002196 90.9470 269.1978 14.34218444441512 IRIDIUM 140 1 43252U 18030D 26247.60179501 -.00000023 00000+0 -15215-4 0 9992 2 43252 86.3908 257.2166 0002206 90.4370 269.7078 14.34218424441577 IRIDIUM 145 1 43253U 18030E 26247.58911034 -.00000021 00000+0 -14586-4 0 9993 2 43253 86.3908 257.1940 0002060 83.6548 276.4883 14.34218233441506 IRIDIUM 146 1 43254U 18030F 26247.63984797 -.00000027 00000+0 -16584-4 0 9992 2 43254 86.3907 257.1847 0002128 88.0008 272.1431 14.34218670441526 IRIDIUM 148 1 43255U 18030G 26247.60813845 -.00000033 00000+0 -19006-4 0 9994 2 43255 86.3909 257.2424 0002097 91.7907 268.3529 14.34216993441559 IRIDIUM 142 1 43256U 18030H 26247.64619249 -.00000039 00000+0 -20978-4 0 9997 2 43256 86.3905 257.1125 0002068 87.4032 272.7400 14.34218441441526 IRIDIUM 150 1 43257U 18030J 26247.61448156 .00000024 00000+0 13900-5 0 9992 2 43257 86.3907 257.2447 0002299 88.5238 271.6221 14.34218267441540 IRIDIUM 143 1 43258U 18030K 26247.59545100 -.00000006 00000+0 -92730-5 0 9997 2 43258 86.3912 257.3484 0002172 87.4136 272.7308 14.34217578441478 IRIDIUM 161 1 43478U 18047C 26247.48347186 .00000052 00000+0 93701-5 0 9999 2 43478 86.4445 55.2857 0002177 95.4429 264.7020 14.43280003436572 IRIDIUM 152 1 43479U 18047D 26247.63794281 -.00000087 00000+0 -38264-4 0 9991 2 43479 86.3918 55.0833 0002071 91.4435 268.6998 14.34217479433879 IRIDIUM 147 1 43480U 18047E 26247.64428338 -.00000068 00000+0 -31336-4 0 9993 2 43480 86.3920 55.0872 0001967 87.4983 272.6438 14.34217564433872 IRIDIUM 110 1 43481U 18047F 26247.58085860 -.00000068 00000+0 -31322-4 0 9991 2 43481 86.3922 55.2077 0002101 98.1386 262.0048 14.34217968433857 IRIDIUM 162 1 43482U 18047G 26247.47717027 .00000072 00000+0 15280-4 0 9995 2 43482 86.4444 55.1786 0002209 89.1356 271.0098 14.43280071436561 IRIDIUM 160 1 43569U 18061A 26247.66622514 .00000058 00000+0 13562-4 0 9999 2 43569 86.3987 23.5520 0002103 94.1122 266.0314 14.34216048424760 IRIDIUM 166 1 43570U 18061B 26247.62182784 .00000023 00000+0 10044-5 0 9992 2 43570 86.3986 23.5199 0002105 91.2909 268.8528 14.34219311424781 IRIDIUM 158 1 43571U 18061C 26247.59011694 .00000048 00000+0 10104-4 0 9993 2 43571 86.3986 23.5430 0002203 93.4274 266.7174 14.34215967424741 IRIDIUM 165 1 43572U 18061D 26247.61548691 -.00000001 00000+0 -74033-5 0 9992 2 43572 86.3986 23.5808 0001981 90.2031 269.9392 14.34215980424774 IRIDIUM 155 1 43573U 18061E 26247.64720134 .00000046 00000+0 93509-5 0 9996 2 43573 86.3984 23.4323 0002177 91.3525 268.7920 14.34218365424743 IRIDIUM 154 1 43574U 18061F 26247.62817282 .00000169 00000+0 53280-4 0 9993 2 43574 86.3988 23.5777 0002074 91.3608 268.7825 14.34218111424798 IRIDIUM 163 1 43575U 18061G 26247.60914308 -.00000126 00000+0 -51926-4 0 9999 2 43575 86.3983 23.4989 0002047 93.5730 266.5700 14.34215876424768 IRIDIUM 156 1 43576U 18061H 26247.58376789 .00000200 00000+0 64508-4 0 9993 2 43576 86.3985 23.5165 0002239 89.8697 270.2755 14.34222709424755 IRIDIUM 164 1 43577U 18061J 26247.63451455 -.00000144 00000+0 -58360-4 0 9992 2 43577 86.3984 23.5371 0001899 90.3339 269.8074 14.34216169424802 IRIDIUM 159 1 43578U 18061K 26247.67257062 .00000004 00000+0 -56700-5 0 9996 2 43578 86.3982 23.4566 0002059 95.3606 264.7825 14.34216515424776 IRIDIUM 180 1 43922U 19002A 26247.46276456 .00000120 00000+0 35660-4 0 9999 2 43922 86.3997 320.4781 0002215 95.7884 264.3564 14.34221321400355 IRIDIUM 176 1 43923U 19002B 26247.61323529 .00000355 00000+0 52463-4 0 9991 2 43923 86.6118 320.3479 0002377 94.4202 265.7286 14.72254523410939 IRIDIUM 168 1 43924U 19002C 26247.59595418 .00000130 00000+0 39372-4 0 9992 2 43924 86.4000 320.5019 0002192 96.0797 264.0649 14.34219683400358 IRIDIUM 173 1 43925U 19002D 26247.65303745 .00000092 00000+0 25667-4 0 9999 2 43925 86.3996 320.3636 0002227 94.3156 265.8294 14.34216097400344 IRIDIUM 169 1 43926U 19002E 26247.26760074 .00000162 00000+0 46332-4 0 9999 2 43926 86.4281 352.1430 0002558 88.7714 271.3777 14.38607147401592 IRIDIUM 172 1 43927U 19002F 26247.64669645 .00000091 00000+0 25584-4 0 9991 2 43927 86.3997 320.3747 0002205 95.5487 264.5960 14.34216067400350 IRIDIUM 175 1 43928U 19002G 26247.50174073 .00000096 00000+0 22370-4 0 9998 2 43928 86.4460 257.3537 0002509 6.5152 353.6081 14.43643719410422 IRIDIUM 171 1 43929U 19002H 26247.34859571 .00000065 00000+0 16219-4 0 9995 2 43929 86.4007 320.8140 0002198 92.6961 267.4486 14.34218722400303 IRIDIUM 170 1 43930U 19002J 26247.61942127 .00000379 00000+0 56152-4 0 9995 2 43930 86.6116 320.3469 0002418 95.8280 264.3213 14.72248858410941 IRIDIUM 167 1 43931U 19002K 26247.62132228 .00000104 00000+0 30168-4 0 9995 2 43931 86.3997 320.4082 0002194 88.4405 271.7042 14.34216355400346 IRIDIUM 181 1 56726U 23068S 26247.34994935 .00000190 00000+0 50537-4 0 9995 2 56726 86.4523 23.6852 0002039 95.3436 264.7997 14.43313483173858 IRIDIUM 177 1 56727U 23068T 26245.80301371 .00000536 00000+0 67333-4 0 9997 2 56727 86.1940 291.9483 0002598 93.8466 266.3052 14.80048058177842 IRIDIUM 174 1 56728U 23068U 26247.19925655 .00000392 00000+0 58301-4 0 9994 2 56728 86.6125 320.6779 0002660 97.2943 262.8576 14.72248641177640 IRIDIUM 178 1 56729U 23068V 26247.27957639 .00000588 00000+0 74221-4 0 9997 2 56729 86.6594 352.3264 0002423 93.7695 266.3804 14.80047401178064 IRIDIUM 179 1 56730U 23068W 26247.34180399 .00000583 00000+0 73587-4 0 9997 2 56730 86.6830 1.5089 0002366 89.7696 270.3796 14.80050671178078